• In Belarus
  • List of Countries
  • For 7 days
  • Water Temperature
  • Weather Map
  • Weather Widgets
  • user-avatar
    Login

    Hourly Weather Natitingou

    Today, 31 March, Tuesday

    Time Temperature Precipitation Wind Pressure Humidity
    00:00 +32°C° 0 mm 2 mps 715 mmHg 46%
    01:00 +31°C° 0 mm 2 mps 714 mmHg 47%
    02:00 +30°C° 0 mm 2 mps 714 mmHg 49%
    03:00 +30°C° 0 mm 1 mps 713 mmHg 50%
    04:00 +29°C° 0 mm 1 mps 714 mmHg 55%
    05:00 +28°C° 0 mm 1 mps 714 mmHg 59%
    06:00 +28°C° 0 mm 1 mps 715 mmHg 63%
    07:00 +30°C° 0 mm 1 mps 715 mmHg 57%
    08:00 +32°C° 0 mm 2 mps 716 mmHg 52%
    09:00 +35°C° 0 mm 2 mps 717 mmHg 46%
    10:00 +37°C° 0 mm 2 mps 716 mmHg 40%
    11:00 +40°C° 0 mm 2 mps 716 mmHg 33%
    12:00 +42°C° 0 mm 2 mps 716 mmHg 27%
    13:00 +40°C° 0.1 mm 3 mps 715 mmHg 31%
    14:00 +39°C° 0.1 mm 3 mps 714 mmHg 34%
    15:00 +37°C° 0.1 mm 4 mps 713 mmHg 38%
    16:00 +36°C° 0 mm 3 mps 713 mmHg 38%
    17:00 +35°C° 0 mm 2 mps 713 mmHg 37%
    18:00 +34°C° 0 mm 1 mps 714 mmHg 37%
    19:00 +33°C° 0 mm 1 mps 714 mmHg 36%
    20:00 +33°C° 0 mm 1 mps 714 mmHg 35%
    21:00 +32°C° 0 mm 1 mps 714 mmHg 34%
    22:00 +33°C° 0 mm 1 mps 715 mmHg 34%
    23:00 +33°C° 0 mm 1 mps 715 mmHg 34%

    Tomorrow, 1 April, Wednesday

    Time Temperature Precipitation Wind Pressure Humidity
    00:00 +33°C° 0 mm 1 mps 715 mmHg 33%
    01:00 +32°C° 0 mm 1 mps 715 mmHg 37%
    02:00 +32°C° 0 mm 1 mps 715 mmHg 41%
    03:00 +31°C° 0 mm 1 mps 715 mmHg 44%
    04:00 +30°C° 0 mm 1 mps 715 mmHg 49%
    05:00 +29°C° 0 mm 1 mps 715 mmHg 54%
    06:00 +28°C° 0 mm 1 mps 716 mmHg 58%
    07:00 +30°C° 0 mm 2 mps 716 mmHg 56%
    08:00 +33°C° 0 mm 3 mps 717 mmHg 53%
    09:00 +34°C° 0 mm 3 mps 718 mmHg 51%
    10:00 +36°C° 0 mm 3 mps 717 mmHg 44%
    11:00 +38°C° 0 mm 3 mps 717 mmHg 37%
    12:00 +42°C° 0 mm 3 mps 717 mmHg 30%
    13:00 +42°C° 0 mm 3 mps 716 mmHg 28%
    14:00 +41°C° 0 mm 2 mps 715 mmHg 27%
    15:00 +41°C° 0 mm 2 mps 714 mmHg 26%
    16:00 +39°C° 0 mm 2 mps 714 mmHg 28%
    17:00 +38°C° 0 mm 2 mps 713 mmHg 30%
    18:00 +37°C° 0 mm 2 mps 713 mmHg 32%
    19:00 +36°C° 0 mm 2 mps 714 mmHg 33%
    20:00 +35°C° 0 mm 1 mps 714 mmHg 34%
    21:00 +34°C° 0 mm 1 mps 715 mmHg 34%
    22:00 +34°C° 0 mm 2 mps 715 mmHg 38%
    23:00 +34°C° 0 mm 2 mps 715 mmHg 41%

    Day after tomorrow, 2 April, Thursday

    Time Temperature Precipitation Wind Pressure Humidity
    00:00 +33°C° 0 mm 3 mps 715 mmHg 45%
    01:00 +31°C° 0 mm 3 mps 715 mmHg 52%
    02:00 +30°C° 0 mm 3 mps 715 mmHg 60%
    03:00 +29°C° 0 mm 3 mps 715 mmHg 67%
    04:00 +28°C° 0 mm 3 mps 715 mmHg 71%
    05:00 +28°C° 0 mm 3 mps 715 mmHg 74%
    06:00 +27°C° 0 mm 3 mps 716 mmHg 78%
    07:00 +29°C° 0 mm 3 mps 716 mmHg 71%
    08:00 +31°C° 0 mm 3 mps 717 mmHg 63%
    09:00 +33°C° 0 mm 4 mps 718 mmHg 56%
    10:00 +35°C° 0 mm 4 mps 717 mmHg 49%
    11:00 +37°C° 0 mm 3 mps 717 mmHg 42%
    12:00 +39°C° 0 mm 3 mps 717 mmHg 35%
    13:00 +40°C° 0 mm 3 mps 716 mmHg 33%
    14:00 +40°C° 0 mm 2 mps 715 mmHg 30%
    15:00 +40°C° 0 mm 2 mps 714 mmHg 27%
    16:00 +39°C° 0 mm 2 mps 714 mmHg 30%
    17:00 +38°C° 0 mm 2 mps 714 mmHg 32%
    18:00 +36°C° 0 mm 2 mps 714 mmHg 35%
    19:00 +35°C° 0.2 mm 3 mps 714 mmHg 43%
    20:00 +33°C° 0.2 mm 4 mps 715 mmHg 51%
    21:00 +32°C° 0.2 mm 6 mps 715 mmHg 59%
    22:00 +30°C° 0.1 mm 4 mps 715 mmHg 59%
    23:00 +30°C° 0.1 mm 3 mps 715 mmHg 58%

    3 April, Friday

    Time Temperature Precipitation Wind Pressure Humidity
    00:00 +29°C° 0.1 mm 1 mps 715 mmHg 58%
    01:00 +29°C° 0 mm 1 mps 715 mmHg 59%
    02:00 +28°C° 0 mm 1 mps 714 mmHg 60%
    03:00 +28°C° 0 mm 1 mps 714 mmHg 60%
    04:00 +28°C° 0 mm 1 mps 714 mmHg 63%
    05:00 +27°C° 0 mm 2 mps 714 mmHg 66%
    06:00 +27°C° 0 mm 3 mps 714 mmHg 68%
    07:00 +29°C° 0 mm 3 mps 715 mmHg 65%
    08:00 +31°C° 0 mm 3 mps 716 mmHg 61%
    09:00 +33°C° 0 mm 3 mps 716 mmHg 57%
    10:00 +35°C° 0 mm 3 mps 716 mmHg 50%
    11:00 +38°C° 0 mm 3 mps 716 mmHg 42%
    12:00 +40°C° 0 mm 3 mps 715 mmHg 34%
    13:00 +42°C° 0 mm 3 mps 715 mmHg 31%
    14:00 +41°C° 0 mm 2 mps 714 mmHg 28%
    15:00 +42°C° 0 mm 2 mps 713 mmHg 25%
    16:00 +38°C° 1.2 mm 3 mps 713 mmHg 35%
    17:00 +35°C° 1.2 mm 5 mps 712 mmHg 46%
    18:00 +30°C° 1.2 mm 7 mps 712 mmHg 57%
    19:00 +30°C° 1.2 mm 5 mps 713 mmHg 56%
    20:00 +30°C° 1.2 mm 4 mps 714 mmHg 55%
    21:00 +30°C° 1.2 mm 2 mps 714 mmHg 55%
    22:00 +30°C° 0 mm 2 mps 714 mmHg 55%
    23:00 +30°C° 0 mm 2 mps 714 mmHg 55%

    4 April, Saturday

    Time Temperature Precipitation Wind Pressure Humidity
    00:00 +30°C° 0 mm 2 mps 714 mmHg 55%
    01:00 +30°C° 0 mm 2 mps 714 mmHg 58%
    02:00 +29°C° 0 mm 2 mps 714 mmHg 61%
    03:00 +29°C° 0 mm 3 mps 714 mmHg 65%
    04:00 +28°C° 0 mm 3 mps 714 mmHg 69%
    05:00 +28°C° 0 mm 3 mps 714 mmHg 74%
    06:00 +27°C° 0 mm 3 mps 715 mmHg 78%
    07:00 +29°C° 0 mm 3 mps 715 mmHg 73%
    08:00 +30°C° 0 mm 3 mps 716 mmHg 69%
    09:00 +32°C° 0 mm 4 mps 717 mmHg 64%
    10:00 +34°C° 0 mm 4 mps 716 mmHg 57%
    11:00 +36°C° 0 mm 4 mps 716 mmHg 50%
    12:00 +38°C° 0 mm 4 mps 716 mmHg 44%
    13:00 +39°C° 0 mm 3 mps 715 mmHg 40%
    14:00 +39°C° 0 mm 2 mps 714 mmHg 37%
    15:00 +40°C° 0 mm 2 mps 714 mmHg 34%
    16:00 +39°C° 0 mm 2 mps 714 mmHg 36%
    17:00 +37°C° 0 mm 1 mps 714 mmHg 39%
    18:00 +35°C° 0 mm 1 mps 714 mmHg 42%
    19:00 +33°C° 1.1 mm 1 mps 715 mmHg 47%
    20:00 +31°C° 1.1 mm 1 mps 715 mmHg 53%
    21:00 +29°C° 1.1 mm 1 mps 716 mmHg 58%
    22:00 +29°C° 1 mm 1 mps 716 mmHg 61%
    23:00 +28°C° 1 mm 1 mps 716 mmHg 63%

    5 April, Sunday

    Time Temperature Precipitation Wind Pressure Humidity
    00:00 +26°C° 1 mm 0 mps 716 mmHg 66%
    01:00 +28°C° 0 mm 1 mps 715 mmHg 67%
    02:00 +28°C° 0 mm 1 mps 715 mmHg 68%
    03:00 +28°C° 0 mm 2 mps 715 mmHg 69%
    04:00 +28°C° 0 mm 2 mps 715 mmHg 72%
    05:00 +28°C° 0 mm 2 mps 715 mmHg 74%
    06:00 +28°C° 0 mm 2 mps 715 mmHg 76%
    07:00 +29°C° 0 mm 3 mps 716 mmHg 72%
    08:00 +30°C° 0 mm 3 mps 716 mmHg 67%
    09:00 +33°C° 0 mm 3 mps 717 mmHg 63%
    10:00 +35°C° 0 mm 3 mps 717 mmHg 56%
    11:00 +36°C° 0 mm 3 mps 716 mmHg 49%
    12:00 +38°C° 0 mm 3 mps 716 mmHg 42%
    13:00 +39°C° 0 mm 2 mps 715 mmHg 38%
    14:00 +40°C° 0 mm 2 mps 715 mmHg 33%
    15:00 +42°C° 0 mm 1 mps 714 mmHg 29%
    16:00 +39°C° 0.3 mm 2 mps 714 mmHg 35%
    17:00 +37°C° 0.3 mm 3 mps 714 mmHg 42%
    18:00 +35°C° 0.3 mm 3 mps 713 mmHg 48%
    19:00 +33°C° 0.8 mm 4 mps 714 mmHg 51%
    20:00 +32°C° 0.8 mm 4 mps 715 mmHg 54%
    21:00 +29°C° 0.8 mm 4 mps 715 mmHg 57%
    22:00 +30°C° 0 mm 3 mps 715 mmHg 58%
    23:00 +30°C° 0 mm 2 mps 715 mmHg 59%
    Show more